Regional Weather Roundup
Issued by NWS Sioux Falls, SD

Home | Current Version | Previous Version | Text Only | Print | Product List | Glossary On
Versions: 1 2 3 4 5 6 7 8 9 10 11 12 13 14 15 16 17 18 19 20 21 22 23 24 25 26 27 28 29 30 31 32 33 34 35 36 37 38 39 40 41 42 43 44 45 46 47 48 49 50
941
ASUS43 KFSD 121810
RWRFSD

WEATHER ROUNDUP FOR SE SOUTH DAKOTA/SW MINNESOTA/NW IOWA
NATIONAL WEATHER SERVICE SIOUX FALLS SD
1200 PM CST TUE DEC 12 2017

NOTE: "FAIR" INDICATES FEW OR NO CLOUDS BELOW 12,000 FEET WITH NO
SIGNIFICANT WEATHER AND OR OBSTRUCTIONS TO VISIBILITY.


SDZ038>040-050-052>070-121900-
SOUTHEAST SOUTH DAKOTA

CITY           SKY/WX    TMP DP  RH WIND       PRES   REMARKS
BROOKINGS      CLOUDY    34  27  75 W13       30.07F WCI  25
CHAMBERLAIN    SUNNY     41  31  69 SW3       30.10F
6HR MIN TEMP:  24; 6HR MAX TEMP:  41;

HURON          SUNNY     41  29  62 MISG      30.08F
6HR MIN TEMP:  23; 6HR MAX TEMP:  41;

MADISON        FAIR      32  32 100 W14       30.08F WCI  22
MITCHELL       SUNNY     40  29  64 SW9       30.12F
6HR MIN TEMP:  22; 6HR MAX TEMP:  41;

SIOUX FALLS    CLOUDY    31  25  78 SW8       30.12F WCI  23
6HR MIN TEMP:  14; 6HR MAX TEMP:  31;

WINNER         FAIR      46  26  45 SW12      30.12F
YANKTON        SUNNY     36  27  69 S6        30.16F
$$

MNZ071-072-080-081-089-090-097-098-121900-
SOUTHWEST MINNESOTA

CITY           SKY/WX    TMP DP  RH WIND       PRES   REMARKS
FAIRMONT       MOSUNNY   27  19  72 SW10      30.11F WCI  17
JACKSON        CLOUDY    28  19  69 MISG      30.10F
LUVERNE        CLOUDY    30  23  74 W12       30.13F WCI  21
MARSHALL       CLOUDY    30  24  78 W17       30.08F WCI  18
6HR MIN TEMP:  11; 6HR MAX TEMP:  30;

MONTEVIDEO     CLOUDY    30  27  86 W6        30.05F WCI  24
PIPESTONE      CLOUDY    28  25  86 W12       30.08F WCI  18
REDWOOD FALLS  PTSUNNY   29  21  72 SW7       30.08F WCI  22
TRACY          CLOUDY    31  26  80 W9        30.08F WCI  23
WINDOM           N/A     28  14  54 W13       30.09F WCI  18
WORTHINGTON    CLOUDY    26  21  81 SW15      30.10F WCI  14
$$

IAZ001>003-012>014-020>022-031-032-NEZ013-014-SDZ071-121900-
NORTHWEST IOWA

CITY           SKY/WX    TMP DP  RH WIND       PRES   REMARKS
CHEROKEE       SUNNY     28  17  62 SW10      30.16F WCI  19
DENISON        SUNNY     28  18  64 SW8       30.22F WCI  20
ESTHERVILLE    SUNNY     28  21  75 W15       30.11F WCI  16
LE MARS        CLOUDY    32  23  69 SW7       30.17F WCI  26
ORANGE CITY    MOSUNNY   32  27  80 SW10      30.14F WCI  24
SHELDON        CLOUDY    28  21  74 SW12      30.12F WCI  18
SIOUX CITY     PTSUNNY   32  22  66 S7        30.21F WCI  26
6HR MIN TEMP:  11; 6HR MAX TEMP:  32;

SPENCER        CLOUDY    28  18  66 W12       30.14F WCI  18
6HR MIN TEMP:   8; 6HR MAX TEMP:  28;

STORM LAKE     SUNNY     28  18  64 SW14      30.14F WCI  17
$$

ABBREVIATIONS USED IN REMARKS
   TC - TEMPERATURE IN CELSIUS
  WCI - WIND CHILL INDEX
   HX - HEAT INDEX
  VSB - VISIBILITY





USA.gov is the U.S. government's official web portal to all federal, state and local government web resources and services.